{"data":{"norad_id":62129,"epoch":"2026-09-20T23:22:53.074560Z","epoch_age_seconds":140504,"freshness":"FRESH","line1":"1 62129U 24222R   26263.97422540  .00010713  00000+0  39821-3 0  9991","line2":"2 62129  43.0026 109.9957 0001081 279.2970  80.7759 15.27584709102651","mean_motion":15.27584709,"eccentricity":0.0001081,"inclination_deg":43.0026,"raan_deg":109.9957,"arg_perigee_deg":279.297,"mean_anomaly_deg":80.7759,"bstar":0.00039821,"rev_number":10265,"period_min":94.266458122814,"perigee_km":482.29330294309,"apogee_km":483.77668832855,"semimajor_km":6861.1719956358,"source":"CELESTRAK","updated_at":"2026-09-22T09:00:49.526736Z"}}